Location: Moscow
(55.7500°N, 37.5830°E)
Time: 10:40:31
(UTC+03:00)

Vanguard 3 - Pass Details

Date: 03 December 2021
Orbit: 508 x 3260 km, 33.3° (Epoch: 19 January)

Event Time Altitude Azimuth Distance (km) Brightness Sun altitude
Rises 08:43:08 0° 261° (W) 7,004 11.5 -0.3°
Reaches altitude 10° 08:49:42 10° 249° (WSW) 5,652 11.2 0.4°
Maximum altitude 09:00:14 21° 209° (SSW) 3,966 10.9 1.4°
Drops below altitude 10° 09:08:03 10° 165° (SSE) 4,040 11.9 2.2°
Sets 09:11:43 0° 150° (SSE) 4,602 13.1 2.6°
